Flag for France Weather past 2 weeks in Paris, France

Now
66 °F

Mostly cloudy.


Feels Like: 66 °F
Forecast: 57 / 73 °F
Wind: 7 mph from West

Location: Villacoublay

Current Time: Aug 29, 2014 at 12:17:45 PM

Latest Report: Aug 29, 2014 at 12:00 PM


Visibility: N/A

Pressure: 30.07 "Hg

Humidity: 83%

Dew point: 61 °F

Location of ParisLocation

Historic Weather in Paris — Graph

°F

Paris temperature yesterday

Maximum temperature yesterday: 72 °F (at 4:30 PM)
Minimum temperature yesterday: 61 °F (at 4:00 AM)
Average temperature yesterday: 64 °F

Past Weeks' High & Low Weather Summary

 TemperatureHumidityPressure
High72 °F (Aug 16, 3:30 PM)100% (Aug 15, 3:30 AM)30.21 "Hg (Aug 15, 3:30 AM)
Low46 °F (Aug 21, 3:30 AM)40% (Aug 21, 3:30 PM)29.68 "Hg (Aug 25, 10:30 PM)
Average60 °F74%29.99 "Hg
* Reported Aug 14 11:00 AM — Aug 29 11:00 AM, Paris, Weather by CustomWeather, © 2014

Note: Actual official high and low records may vary slightly from our data, if they occured in-between our weather recording intervals... More about our weather records

Advertising

Paris weather history for previous 24 hours

 ConditionsComfort  
Time TempWeatherWind HumidityBarometerVisibility
11:00 AM
Aug 29
63 °FMore clouds than sun.5 mph83%30.07 "HgN/A
10:30 AM61 °FLow clouds.8 mph88%30.07 "HgN/A
10:00 AM61 °FMostly cloudy.7 mph94%30.07 "HgN/A
9:30 AM61 °FPartly sunny.5 mph94%30.07 "HgN/A
9:00 AM59 °FPartly sunny.5 mph94%30.07 "HgN/A
8:30 AM59 °FMostly cloudy.5 mph94%30.04 "HgN/A
8:00 AM59 °FPartly cloudy.3 mph94%30.04 "HgN/A
7:30 AM57 °FOvercast.No wind94%30.04 "HgN/A
7:00 AM57 °FClear.3 mph94%30.04 "HgN/A
6:30 AM57 °FClear.1 mph94%30.04 "HgN/A
6:00 AM57 °FClear.5 mph94%30.01 "HgN/A
5:30 AM59 °FClear.7 mph88%30.01 "HgN/A
5:00 AM59 °FClear.6 mph88%30.01 "HgN/A
4:30 AM59 °FClear.6 mph88%30.01 "HgN/A
4:00 AM59 °FClear.6 mph88%30.01 "HgN/A
3:30 AM59 °FClear.6 mph88%30.01 "HgN/A
3:00 AM59 °FClear.5 mph88%30.01 "HgN/A
2:30 AM61 °FClear.3 mph83%30.01 "HgN/A
2:00 AM61 °FClear.6 mph83%30.01 "HgN/A
1:30 AM63 °FClear.6 mph77%30.01 "HgN/A
1:00 AM63 °FClear.5 mph77%30.01 "HgN/A
12:30 AM61 °FClear.3 mph83%30.01 "HgN/A
12:00 AM61 °FClear.2 mph83%30.01 "HgN/A
11:30 PM
Aug 28
61 °FClear.2 mph83%30.01 "HgN/A
11:00 PM61 °FClear.2 mph83%30.01 "HgN/A
10:30 PM63 °FClear.1 mph77%30.01 "HgN/A
10:00 PM63 °FClear.3 mph77%30.01 "HgN/A
9:30 PM61 °FClear.3 mph83%30.01 "HgN/A
9:00 PM64 °FSunny.No wind73%30.01 "HgN/A
8:30 PM64 °FClear.5 mph73%30.01 "HgN/A
8:00 PM68 °FClear.7 mph69%29.98 "HgN/A
7:30 PM68 °FPassing clouds.5 mph73%29.98 "HgN/A
7:00 PM68 °FClear.5 mph78%29.98 "HgN/A
6:30 PM66 °FMore clouds than sun.6 mph88%29.98 "HgN/A
6:00 PM64 °FCloudy.7 mph88%29.98 "HgN/A
5:30 PM64 °FRain. Broken clouds.14 mph94%29.98 "Hg4 mi
5:00 PM68 °FBroken clouds.16 mph73%29.98 "HgN/A
4:30 PM72 °FPartly sunny.10 mph65%29.98 "HgN/A
4:00 PM70 °FPartly sunny.10 mph69%29.98 "HgN/A
3:30 PM70 °FMostly cloudy.13 mph69%29.98 "HgN/A
3:00 PM70 °FCloudy.12 mph73%29.98 "HgN/A
2:30 PM66 °FMore clouds than sun.13 mph78%29.98 "HgN/A
2:00 PM68 °FMostly cloudy.12 mph78%29.98 "HgN/A
1:30 PM70 °FPartly sunny.9 mph78%29.95 "HgN/A
1:00 PM70 °FPartly sunny.9 mph83%29.95 "HgN/A
12:30 PM68 °FPartly sunny.7 mph88%29.95 "HgN/A
12:00 PM66 °FMostly cloudy.6 mph94%29.95 "HgN/A
Weather by CustomWeather, © 2014

See weather overviewHow to use our weather pages